Flag for U.S.A. Weather past 2 weeks in Tucson, Arizona, U.S.A.

Now
82 °F

Sunny.


Feels Like: 84 °F
Forecast: 78 / 90 °F
Wind: 10 mph from South

Location: Davis-Monthan Air Force Base

Current Time: Jul 5, 2015 at 10:55:00 AM

Latest Report: Jul 5, 2015 at 9:58 AM


Visibility: 10 mi

Pressure: 29.91 "Hg (27.44 "Hg at 758m altitude)

Humidity: 56%

Dew point: 65 °F

Location of TucsonLocation

Historic Weather in Tucson — Graph

°F

Tucson temperature yesterday

Maximum temperature yesterday: 92 °F (at 3:58 PM)
Minimum temperature yesterday: 80 °F (at 3:58 AM)
Average temperature yesterday: 86 °F

Past Weeks' High & Low Weather Summary

 TemperatureHumidityPressure
High105 °F (Jun 20, 3:58 PM)80% (Jul 2, 4:58 AM)30.03 "Hg (Jul 2, 4:58 AM)
Low71 °F (Jul 1, 5:58 AM)5% (Jun 20, 11:58 AM)29.66 "Hg (Jul 3, 5:58 PM)
Average88 °F37%29.82 "Hg
* Reported Jun 20 8:58 AM — Jul 5 8:58 AM, Tucson, Weather by CustomWeather, © 2015

Note: Actual official high and low records may vary slightly from our data, if they occured in-between our weather recording intervals... More about our weather records

Advertising

Tucson weather history for previous 24 hours

 ConditionsComfort  
Time TempWeatherWind HumidityBarometerVisibility
8:58 AM
Sun, Jul 5
82 °FPassing clouds.9 mph56%29.91 "Hg10 mi
7:58 AM82 °FSunny.7 mph55%29.90 "Hg10 mi
6:58 AM81 °FSunny.8 mph53%29.88 "Hg10 mi
5:58 AM81 °FPassing clouds.8 mph52%29.87 "Hg10 mi
4:58 AM81 °FPassing clouds.8 mph50%29.85 "Hg10 mi
3:58 AM82 °FPassing clouds.12 mph48%29.83 "Hg10 mi
2:58 AM82 °FPartly cloudy.8 mph50%29.81 "Hg10 mi
1:58 AM82 °FPassing clouds.8 mph45%29.81 "Hg10 mi
12:58 AM83 °FPassing clouds.6 mph45%29.82 "Hg10 mi
11:58 PM
Sat, Jul 4
83 °FPassing clouds.10 mph44%29.81 "Hg10 mi
10:58 PM83 °FPassing clouds.7 mph50%29.81 "Hg10 mi
10:01 PM86 °FPassing clouds.9 mph38%29.95 "Hg10 mi
9:58 PM87 °FPassing clouds.9 mph35%29.80 "Hg10 mi
8:58 PM88 °FPassing clouds.2 mph33%29.79 "Hg10 mi
7:58 PM89 °FPassing clouds.5 mph30%29.76 "Hg10 mi
6:58 PM90 °FPartly sunny.8 mph30%29.76 "Hg10 mi
6:02 PM90 °FDrizzle. Partly sunny.9 mph29%29.89 "Hg10 mi
5:58 PM91 °FScattered clouds.8 mph28%29.74 "Hg10 mi
4:58 PM91 °FSunny.10 mph29%29.76 "Hg10 mi
3:58 PM92 °FPassing clouds.10 mph29%29.76 "Hg10 mi
2:58 PM91 °FSunny.8 mph33%29.78 "Hg10 mi
1:58 PM89 °FScattered clouds.9 mph36%29.80 "Hg10 mi
12:58 PM89 °FPassing clouds.8 mph36%29.83 "Hg10 mi
12:00 PM88 °FLight rain. Scattered clouds.8 mph38%29.97 "Hg10 mi
10:58 AM87 °FPassing clouds.6 mph41%29.82 "Hg10 mi
Weather by CustomWeather, © 2015

See weather overviewHow to use our weather pages